User: anonymous   Login
Location: Arrodets-la-Barthe
(43.0306°N, 0.2829°E)
Time: 13:52:01
(UTC+00:00)
Language:

Lacrosse 4 Rocket - Orbit

View from above orbital plane
View from above orbital plane
View from above satellite
View from above satellite

Ground track
Ground track

The orbit data is extracted from the following two-line orbital elements,

1 26474U 00047B   22020.07366992  .00000830  00000-0  81340-4 0  9993
2 26474  67.9935 274.3205 0060886 277.2250  82.1973 14.96387113166321
Epoch (UTC): 20 January 2022 01:46:05
Eccentricity: 0.0060886
inclination: 67.9935°
perigee height: 536 km
apogee height: 620 km
right ascension of ascending node: 274.3205°
argument of perigee: 277.2250°
revolutions per day: 14.96387113
mean anomaly at epoch: 82.1973°
orbit number at epoch: 16632

The dashed part of the orbit path shows where the satellite is in the earth's shadow,  

DLR